Home > Weather > Kragerø > Past weeks

Flag for Norway Past Weather in Kragerø, Norway — Yesterday and Last 2 Weeks

Now
58 °F

Cool.


Feels Like: 56 °F
Forecast: 50 / 60 °F
Wind: 13 mph from Southwest

Location: Jomfruland Fyr

Current Time: Jun 30, 2016 at 11:30:05 PM

Latest Report: Jun 30, 2016 at 10:00 PM


Visibility: N/A

Pressure: 29.74 "Hg

Humidity: 80%

Dew Point: 52 °F

Location of KragerøLocation

Past Weather in Kragerø — Graph

°F

Kragerø Temperature Yesterday

Maximum temperature yesterday: 65 °F (at 1:00 PM)
Minimum temperature yesterday: 55 °F (at 5:00 AM)
Average temperature yesterday: 60 °F

High & Low Weather Summary for the Past Weeks

 TemperatureHumidityPressure
High70 °F (Jun 16, 2:00 PM)94% (Jun 20, 8:00 PM)30.18 "Hg (Jun 20, 8:00 PM)
Low53 °F (Jun 28, 5:00 AM)44% (Jun 28, 10:00 AM)29.56 "Hg (Jun 17, 8:00 PM)
Average61 °F81%29.83 "Hg
* Reported Jun 15 9:00 PM — Jun 30 9:00 PM, Kragerø, Weather by CustomWeather, © 2016

Note: Actual official high and low records may vary slightly from our data, if they occured in-between our weather recording intervals... More about our weather records

Advertising

Kragerø Weather History for the Previous 24 Hours

Scroll right to see more
 ConditionsComfort  
Time TempWeatherWind HumidityBarometerVisibility
9:00 PM
Thu, Jun 30
59 °FCool.13 mph77%29.73 "HgN/A
8:00 PM59 °FCool.14 mph80%29.72 "HgN/A
7:00 PM60 °FCool.15 mph79%29.70 "HgN/A
6:00 PM60 °FCool.14 mph74%29.70 "HgN/A
5:00 PM60 °FCool.14 mph70%29.69 "HgN/A
4:00 PM60 °FCool.15 mph73%29.69 "HgN/A
3:00 PM61 °FCool.12 mph73%29.68 "HgN/A
2:00 PM60 °FCool.13 mph73%29.67 "HgN/A
1:00 PM61 °FCool.12 mph75%29.66 "HgN/A
12:00 PM60 °FCool.12 mph78%29.65 "HgN/A
11:00 AM58 °FCool.13 mph88%29.65 "HgN/A
10:00 AM59 °FCool.13 mph89%29.65 "HgN/A
9:00 AM57 °FCool.12 mph93%29.64 "HgN/A
8:00 AM56 °FCool.8 mph91%29.65 "HgN/A
7:00 AM56 °FCool.10 mph83%29.67 "HgN/A
6:00 AM58 °FCool.6 mph83%29.67 "HgN/A
5:00 AM57 °FCool.8 mph84%29.68 "HgN/A
4:00 AM59 °FCool.7 mph80%29.69 "HgN/A
3:00 AM59 °FCool.7 mph82%29.70 "HgN/A
2:00 AM59 °FCool.6 mph83%29.70 "HgN/A
1:00 AM59 °FCool.7 mph83%29.71 "HgN/A
12:00 AM59 °FCool.5 mph87%29.72 "HgN/A
11:00 PM
Wed, Jun 29
59 °FCool.5 mph86%29.72 "HgN/A
Weather by CustomWeather, © 2016

See weather overviewHow to use our weather pages